Regional Weather Roundup
Issued by NWS Little Rock, AR

Home | Current Version | Previous Version | Text Only | Print | Product List | Glossary Off
Versions: 1 2 3 4 5 6 7 8 9 10 11 12 13 14 15 16 17 18 19 20 21 22 23 24 25 26 27 28 29 30 31 32 33 34 35 36 37 38 39 40 41 42 43 44 45 46 47 48

544
ASUS44 KLZK 100905
RWRLZK

WEATHER ROUNDUP FOR ARKANSAS
NATIONAL WEATHER SERVICE LITTLE ROCK AR
300 AM CST WED FEB 10 2016

NOTE: "FAIR" INDICATES FEW OR NO CLOUDS BELOW 12,000 FEET WITH NO
SIGNIFICANT WEATHER AND/OR OBSTRUCTIONS TO VISIBILITY.

ARZ001-003-010-029-101000-
NORTHWEST ARKANSAS

CITY           SKY/WX    TMP DP  RH WIND       PRES   REMARKS
FAYETTEVILLE   CLEAR     18  10  71 CALM      30.26R
FORT SMITH     CLEAR     25   6  44 W7        30.32R WCI  17
HARRISON       CLEAR     21   7  54 NW10      30.20S WCI  10
BENTONVILLE    CLEAR    N/A N/A N/A W3        30.25R
ROGERS         CLEAR     21   8  57 W5        30.25R WCI  15
SILOAM SPGS    CLEAR     21   1  42 W3        30.27R
HIGHFILL       CLEAR     20   8  60 W6        30.25R WCI  12
$$

ARZ004-005-016-101000-
NORTH CENTRAL ARKANSAS

CITY           SKY/WX    TMP DP  RH WIND       PRES   REMARKS
BATESVILLE     CLEAR     27   5  39 W7        30.24R WCI  19
FLIPPIN        CLEAR     25   3  39 NW8       30.20S WCI  16
MTN HOME       CLEAR     23   7  50 NW6       30.20S WCI  16
$$

ARZ040-041-101000-
WEST CENTRAL ARKANSAS

CITY           SKY/WX    TMP DP  RH WIND       PRES   REMARKS
MENA           CLEAR     32  12  43 NW6       30.26S WCI  26
MOUNT IDA      CLEAR     31   8  38 NW7       30.25R WCI  24
$$

ARZ009-017-025-026-028-101000-
NORTHEAST ARKANSAS

CITY           SKY/WX    TMP DP  RH WIND       PRES   REMARKS
CORNING        FAIR      21  10  63 NW8       30.22R WCI  12
JONESBORO      CLEAR     24   9  52 NW8       30.22R WCI  15
NEWPORT        CLEAR     26   6  42 NW12      30.25S WCI  16
WALNUT RIDGE   CLEAR     23   5  46 NW13      30.23R WCI  11
BLYTHEVILLE    CLEAR     21  13  71 NW6       30.21R WCI  13
$$

ARZ022-023-033-042-044-101000-
CENTRAL ARKANSAS

CITY           SKY/WX    TMP DP  RH WIND       PRES   REMARKS
LITTLE ROCK    CLEAR     29   8  41 N8        30.27R WCI  21
N LITTLE ROCK    N/A     29  10  44 NW13G18   30.27R WCI  19
JACKSONVILLE   CLEAR     29   6  38 W5        30.25R WCI  24
SEARCY         CLEAR     28   9  43 VRB7      30.26S WCI  21
HOT SPRINGS    CLEAR     32  10  40 N5        30.27R WCI  27
RUSSELLVILLE   CLEAR     28   7  41 NW6       30.27R WCI  22
CLINTON        FAIR      27   7  43 CALM      30.26R
$$

ARZ036-101000-
EAST ARKANSAS

CITY           SKY/WX    TMP DP  RH WIND       PRES   REMARKS
WEST MEMPHIS   CLEAR     25  17  72 NW5       30.22R WCI  19
$$

ARZ050-053-066-070-073-101000-
SOUTHWEST ARKANSAS

CITY           SKY/WX    TMP DP  RH WIND       PRES   REMARKS
ARKADELPHIA    FAIR      33  16  50 W5        30.29R WCI  28
CAMDEN         CLEAR     30  14  51 W5        30.28R WCI  25
TEXARKANA      CLEAR     36  17  46 NW9       30.29R
EL DORADO      CLEAR     27  19  72 CALM      30.28R
DE QUEEN       CLEAR     35  16  45 CALM      30.28R
$$

ARZ056-057-069-101000-
SOUTHEAST ARKANSAS

CITY           SKY/WX    TMP DP  RH WIND       PRES   REMARKS
PINE BLUFF     CLEAR     29  14  53 N7        30.27R WCI  22
STUTTGART      CLEAR     30  12  47 NW12      30.25S WCI  21
MONTICELLO     CLEAR     34  11  38 NW5       30.25R WCI  30

$$






USA.gov is the U.S. government's official web portal to all federal, state and local government web resources and services.